User: anonymous   Login
Location: Berg
(47.2344°N, 9.5296°E)
Time: 03:42:56
(UTC+00:00)
Language:

CZ-2C R/B - Orbit

View from above orbital plane
View from above orbital plane
View from above satellite
View from above satellite

Ground track
Ground track

The orbit data is extracted from the following two-line orbital elements,

1 28480U 04046B   21106.67250733  .00000001  00000-0  15303-4 0  9996
2 28480  98.0540 123.6483 0142834  47.2967  63.5137 14.25749304853644
Epoch (UTC): 16 April 2021 16:08:24
Eccentricity: 0.0142834
inclination: 98.0540°
perigee height: 703 km
apogee height: 908 km
right ascension of ascending node: 123.6483°
argument of perigee: 47.2967°
revolutions per day: 14.25749304
mean anomaly at epoch: 63.5137°
orbit number at epoch: 85364

The dashed part of the orbit path shows where the satellite is in the earth's shadow,  

DLR